Regional Weather Roundup
Issued by NWS Tiyan, Guam

Home | Current Version | Previous Version | Text Only | Print | Product List | Glossary On
Versions: 1 2 3 4 5 6 7 8 9 10 11 12 13 14 15 16 17 18 19 20 21 22 23 24 25 26
000
ASGM40 PGUM 180312
RWRGUM
WEATHER ROUNDUP FOR THE MARIANAS
NATIONAL WEATHER SERVICE TIYAN GU
100 PM CHST SUN FEB 18 2018

GUZ001>004-180400-
MARIANA ISLANDS-

CITY           SKY/WX    TMP DP  RH WIND       PRES   REMARKS
GUAM AIRPORT   PTSUNNY   84  73  70 E18       29.89F HX  91
ANDERSEN AFB   MOSUNNY   82  73  74 E17       29.90F
ROTA AIRPORT   MOSUNNY   82  72  69 NE16      29.91F
TINIAN AP      MOSUNNY   82  75  78 NE21      29.89F
SAIPAN AP      MOSUNNY   88  72  58 E21       29.90F HX  94

$$





USA.gov is the U.S. government's official web portal to all federal, state and local government web resources and services.